Terminal Aerodrome Forecast
Issued by NWS

Home | Current Version | Previous Version | Text Only | Print | Product List | Glossary On
Versions: 1 2 3 4 5 6 7 8 9 10 11 12 13 14 15 16 17 18 19 20 21 22 23 24 25 26 27 28 29 30 31 32 33
000
FTUS43 KDLH 301100
TAFBRD
TAF
KBRD 301139Z 3012/3112 00000KT P6SM OVC005
     FM301500 01005KT P6SM BKN015
     FM301800 VRB05KT P6SM VCSH BKN030
     FM302200 VRB05KT P6SM SCT050=

USA.gov is the U.S. government's official web portal to all federal, state and local government web resources and services.